Time,TemperatureF,DewpointF,PressureIn,WindDirection,WindDirectionDegrees,WindSpeedMPH,WindSpeedGustMPH,Humidity,HourlyPrecipIn,Conditions,Clouds,dailyrainin,SoftwareType,DateUTC
2013-03-05 00:01:00,51.7,32.1,29.97,SSW,200,4.0,6.0,47,0.00,,,0.00,Wunderground v.1.15,2013-03-05 06:01:00,
2013-03-05 00:06:00,51.7,32.1,29.96,SSW,209,5.0,8.0,47,0.00,,,0.00,Wunderground v.1.15,2013-03-05 06:06:00,
2013-03-05 00:11:00,51.8,32.7,29.96,South,171,5.0,5.0,48,0.00,,,0.00,Wunderground v.1.15,2013-03-05 06:11:00,
2013-03-05 00:17:00,51.8,32.7,29.96,SW,225,5.0,8.0,48,0.00,,,0.00,Wunderground v.1.15,2013-03-05 06:17:00,
2013-03-05 00:22:00,52.0,33.4,29.96,SSE,168,5.0,7.0,49,0.00,,,0.00,Wunderground v.1.15,2013-03-05 06:22:00,
2013-03-05 00:27:00,52.0,33.9,29.96,South,170,4.0,7.0,50,0.00,,,0.00,Wunderground v.1.15,2013-03-05 06:27:00,
2013-03-05 00:32:00,52.1,34.0,29.96,South,178,5.0,8.0,50,0.00,,,0.00,Wunderground v.1.15,2013-03-05 06:32:00,
2013-03-05 00:38:00,52.3,34.2,29.96,SSW,200,6.0,8.0,50,0.00,,,0.00,Wunderground v.1.15,2013-03-05 06:38:00,
2013-03-05 00:43:00,52.4,34.8,29.95,SSW,207,7.0,10.0,51,0.00,,,0.00,Wunderground v.1.15,2013-03-05 06:43:00,
2013-03-05 00:48:00,52.5,34.9,29.95,SW,221,6.0,10.0,51,0.00,,,0.00,Wunderground v.1.15,2013-03-05 06:48:00,
2013-03-05 00:53:00,52.6,35.5,29.95,SSW,197,6.0,10.0,52,0.00,,,0.00,Wunderground v.1.15,2013-03-05 06:53:00,
2013-03-05 00:59:00,52.8,35.6,29.95,WSW,247,7.0,10.0,52,0.00,,,0.00,Wunderground v.1.15,2013-03-05 06:59:00,
2013-03-05 01:04:00,52.8,35.6,29.95,South,188,7.0,8.0,52,0.00,,,0.00,Wunderground v.1.15,2013-03-05 07:04:00,
2013-03-05 01:10:00,52.8,36.1,29.95,SSE,165,6.0,6.0,53,0.00,,,0.00,Wunderground v.1.15,2013-03-05 07:10:00,
2013-03-05 01:15:00,52.9,36.2,29.95,South,174,7.0,11.0,53,0.00,,,0.00,Wunderground v.1.15,2013-03-05 07:15:00,
2013-03-05 01:20:00,52.9,36.7,29.95,SSW,200,6.0,6.0,54,0.00,,,0.00,Wunderground v.1.15,2013-03-05 07:20:00,
2013-03-05 01:25:00,52.9,37.2,29.94,SSW,195,6.0,9.0,55,0.00,,,0.00,Wunderground v.1.15,2013-03-05 07:25:00,
2013-03-05 01:31:00,52.9,37.6,29.94,SSW,212,5.0,7.0,56,0.00,,,0.00,Wunderground v.1.15,2013-03-05 07:31:00,
2013-03-05 01:36:00,52.9,38.1,29.94,WSW,253,5.0,10.0,57,0.00,,,0.00,Wunderground v.1.15,2013-03-05 07:36:00,
2013-03-05 01:41:00,53.0,38.2,29.94,SSW,195,6.0,6.0,57,0.00,,,0.00,Wunderground v.1.15,2013-03-05 07:41:00,
2013-03-05 01:47:00,53.0,38.6,29.93,SSW,209,6.0,9.0,58,0.00,,,0.00,Wunderground v.1.15,2013-03-05 07:47:00,
2013-03-05 01:52:00,53.0,39.5,29.93,WSW,245,5.0,6.0,60,0.00,,,0.00,Wunderground v.1.15,2013-03-05 07:52:00,
2013-03-05 01:57:00,53.1,39.6,29.93,SW,232,6.0,14.0,60,0.00,,,0.00,Wunderground v.1.15,2013-03-05 07:57:00,
2013-03-05 02:03:00,53.3,40.2,29.93,South,181,6.0,9.0,61,0.00,,,0.00,Wunderground v.1.15,2013-03-05 08:03:00,
2013-03-05 02:08:00,53.3,40.2,29.93,SSW,194,6.0,10.0,61,0.00,,,0.00,Wunderground v.1.15,2013-03-05 08:08:00,
2013-03-05 02:13:00,53.3,40.6,29.92,South,174,6.0,9.0,62,0.00,,,0.00,Wunderground v.1.15,2013-03-05 08:13:00,
2013-03-05 02:18:00,53.3,40.6,29.92,SSW,212,6.0,9.0,62,0.00,,,0.00,Wunderground v.1.15,2013-03-05 08:18:00,
2013-03-05 02:24:00,53.3,41.0,29.92,SSW,200,5.0,7.0,63,0.00,,,0.00,Wunderground v.1.15,2013-03-05 08:24:00,
2013-03-05 02:29:00,53.2,40.9,29.92,SSW,194,5.0,7.0,63,0.00,,,0.00,Wunderground v.1.15,2013-03-05 08:29:00,
2013-03-05 02:35:00,53.2,41.3,29.91,South,178,6.0,9.0,64,0.00,,,0.00,Wunderground v.1.15,2013-03-05 08:35:00,
2013-03-05 02:41:00,53.2,41.3,29.91,South,178,6.0,7.0,64,0.00,,,0.00,Wunderground v.1.15,2013-03-05 08:41:00,
2013-03-05 02:46:00,53.1,41.6,29.91,South,178,6.0,7.0,65,0.00,,,0.00,Wunderground v.1.15,2013-03-05 08:46:00,
2013-03-05 02:51:00,53.0,41.5,29.91,South,174,6.0,6.0,65,0.00,,,0.00,Wunderground v.1.15,2013-03-05 08:51:00,
2013-03-05 02:57:00,52.6,43.1,29.91,South,185,5.0,9.0,70,0.00,,,0.00,Wunderground v.1.15,2013-03-05 08:57:00,
2013-03-05 03:02:00,51.9,43.2,29.91,South,171,5.0,5.0,72,0.00,,,0.00,Wunderground v.1.15,2013-03-05 09:02:00,
2013-03-05 03:07:00,51.1,43.8,29.91,WSW,238,5.0,11.0,76,0.00,,,0.01,Wunderground v.1.15,2013-03-05 09:07:00,
2013-03-05 03:13:00,50.2,44.3,29.91,WSW,254,6.0,10.0,80,0.00,,,0.01,Wunderground v.1.15,2013-03-05 09:13:00,
2013-03-05 03:18:00,49.9,44.3,29.91,South,184,6.0,10.0,81,0.00,,,0.01,Wunderground v.1.15,2013-03-05 09:18:00,
2013-03-05 03:23:00,49.7,44.1,29.91,SSW,200,5.0,9.0,81,0.00,,,0.01,Wunderground v.1.15,2013-03-05 09:23:00,
2013-03-05 03:28:00,49.7,44.4,29.91,SE,132,5.0,9.0,82,0.00,,,0.01,Wunderground v.1.15,2013-03-05 09:28:00,
2013-03-05 03:34:00,49.8,44.5,29.91,SSW,194,5.0,5.0,82,0.00,,,0.01,Wunderground v.1.15,2013-03-05 09:34:00,
2013-03-05 03:39:00,49.8,44.5,29.91,South,180,4.0,5.0,82,0.00,,,0.01,Wunderground v.1.15,2013-03-05 09:39:00,
2013-03-05 03:45:00,49.8,44.8,29.91,South,185,4.0,6.0,83,0.00,,,0.01,Wunderground v.1.15,2013-03-05 09:45:00,
2013-03-05 03:51:00,49.7,44.7,29.91,SSE,157,4.0,4.0,83,0.00,,,0.01,Wunderground v.1.15,2013-03-05 09:51:00,
2013-03-05 03:56:00,49.7,44.7,29.91,SW,230,4.0,7.0,83,0.00,,,0.01,Wunderground v.1.15,2013-03-05 09:56:00,
2013-03-05 04:01:00,49.8,44.8,29.90,South,190,5.0,7.0,83,0.00,,,0.01,Wunderground v.1.15,2013-03-05 10:01:00,
2013-03-05 04:07:00,49.9,45.3,29.90,South,181,6.0,7.0,84,0.00,,,0.01,Wunderground v.1.15,2013-03-05 10:07:00,
2013-03-05 04:12:00,50.0,45.4,29.90,SSW,192,5.0,6.0,84,0.00,,,0.01,Wunderground v.1.15,2013-03-05 10:12:00,
2013-03-05 04:17:00,50.1,45.5,29.90,WSW,244,5.0,8.0,84,0.00,,,0.01,Wunderground v.1.15,2013-03-05 10:17:00,
2013-03-05 04:23:00,50.2,45.6,29.90,SSW,200,6.0,9.0,84,0.00,,,0.01,Wunderground v.1.15,2013-03-05 10:23:00,
2013-03-05 04:28:00,50.2,45.6,29.90,SSW,209,5.0,9.0,84,0.00,,,0.01,Wunderground v.1.15,2013-03-05 10:28:00,
2013-03-05 04:33:00,50.2,45.6,29.90,SSE,167,5.0,5.0,84,0.00,,,0.01,Wunderground v.1.15,2013-03-05 10:33:00,
2013-03-05 04:38:00,50.3,46.0,29.90,SSE,167,5.0,7.0,85,0.00,,,0.01,Wunderground v.1.15,2013-03-05 10:38:00,
2013-03-05 04:44:00,50.3,46.0,29.90,SSW,209,6.0,9.0,85,0.00,,,0.01,Wunderground v.1.15,2013-03-05 10:44:00,
2013-03-05 04:49:00,50.4,46.1,29.91,South,173,6.0,9.0,85,0.00,,,0.01,Wunderground v.1.15,2013-03-05 10:49:00,
2013-03-05 04:55:00,50.5,46.2,29.90,South,191,6.0,9.0,85,0.00,,,0.01,Wunderground v.1.15,2013-03-05 10:55:00,
2013-03-05 05:00:00,50.6,46.3,29.90,West,262,7.0,8.0,85,0.00,,,0.01,Wunderground v.1.15,2013-03-05 11:00:00,
2013-03-05 05:05:00,50.6,46.3,29.90,SSW,203,7.0,11.0,85,0.00,,,0.01,Wunderground v.1.15,2013-03-05 11:05:00,
2013-03-05 05:10:00,50.6,46.3,29.90,SSW,194,7.0,7.0,85,0.00,,,0.01,Wunderground v.1.15,2013-03-05 11:10:00,
2013-03-05 05:16:00,50.8,46.5,29.90,WSW,239,7.0,10.0,85,0.00,,,0.01,Wunderground v.1.15,2013-03-05 11:16:00,
2013-03-05 05:21:00,50.8,46.5,29.90,SSW,207,6.0,6.0,85,0.00,,,0.01,Wunderground v.1.15,2013-03-05 11:21:00,
2013-03-05 05:27:00,50.9,46.9,29.90,WSW,254,7.0,12.0,86,0.00,,,0.01,Wunderground v.1.15,2013-03-05 11:27:00,
2013-03-05 05:33:00,51.1,46.7,29.89,WSW,238,9.0,12.0,85,0.00,,,0.01,Wunderground v.1.15,2013-03-05 11:33:00,
2013-03-05 05:38:00,51.1,46.7,29.89,SW,228,9.0,12.0,85,0.00,,,0.01,Wunderground v.1.15,2013-03-05 11:38:00,
2013-03-05 05:43:00,51.1,46.7,29.90,South,190,8.0,10.0,85,0.00,,,0.01,Wunderground v.1.15,2013-03-05 11:43:00,
2013-03-05 05:49:00,51.2,46.8,29.90,WSW,253,7.0,15.0,85,0.00,,,0.01,Wunderground v.1.15,2013-03-05 11:49:00,
2013-03-05 05:54:00,51.3,46.9,29.90,SSW,200,7.0,12.0,85,0.00,,,0.01,Wunderground v.1.15,2013-03-05 11:54:00,
2013-03-05 05:59:00,51.4,47.0,29.90,South,181,7.0,12.0,85,0.00,,,0.01,Wunderground v.1.15,2013-03-05 11:59:00,
2013-03-05 06:05:00,51.5,47.1,29.89,WSW,240,7.0,11.0,85,0.00,,,0.01,Wunderground v.1.15,2013-03-05 12:05:00,
2013-03-05 06:10:00,51.7,47.3,29.89,South,179,8.0,8.0,85,0.00,,,0.01,Wunderground v.1.15,2013-03-05 12:10:00,
2013-03-05 06:15:00,51.8,47.4,29.89,WSW,239,8.0,12.0,85,0.00,,,0.01,Wunderground v.1.15,2013-03-05 12:15:00,
2013-03-05 06:20:00,51.8,47.4,29.89,SW,224,8.0,8.0,85,0.00,,,0.01,Wunderground v.1.15,2013-03-05 12:20:00,
2013-03-05 06:26:00,51.8,47.4,29.89,SW,228,7.0,13.0,85,0.00,,,0.01,Wunderground v.1.15,2013-03-05 12:26:00,
2013-03-05 06:31:00,51.8,47.4,29.89,SW,233,7.0,9.0,85,0.00,,,0.01,Wunderground v.1.15,2013-03-05 12:31:00,
2013-03-05 06:37:00,51.8,47.4,29.89,WSW,245,7.0,10.0,85,0.00,,,0.01,Wunderground v.1.15,2013-03-05 12:37:00,
2013-03-05 06:42:00,51.8,47.7,29.89,SW,230,7.0,8.0,86,0.00,,,0.01,Wunderground v.1.15,2013-03-05 12:42:00,
2013-03-05 06:47:00,51.8,47.7,29.88,SSW,205,7.0,8.0,86,0.00,,,0.01,Wunderground v.1.15,2013-03-05 12:47:00,
2013-03-05 06:53:00,51.9,47.8,29.88,WSW,241,8.0,9.0,86,0.00,,,0.01,Wunderground v.1.15,2013-03-05 12:53:00,
2013-03-05 06:58:00,52.0,47.9,29.88,SW,217,8.0,11.0,86,0.00,,,0.01,Wunderground v.1.15,2013-03-05 12:58:00,
2013-03-05 07:03:00,52.1,48.0,29.88,SSW,204,8.0,9.0,86,0.00,,,0.01,Wunderground v.1.15,2013-03-05 13:03:00,
2013-03-05 07:09:00,52.2,48.1,29.88,WSW,246,8.0,15.0,86,0.00,,,0.01,Wunderground v.1.15,2013-03-05 13:09:00,
2013-03-05 07:15:00,52.3,48.2,29.88,SW,236,8.0,9.0,86,0.00,,,0.01,Wunderground v.1.15,2013-03-05 13:15:00,
2013-03-05 07:20:00,52.4,48.3,29.88,SW,221,7.0,7.0,86,0.00,,,0.01,Wunderground v.1.15,2013-03-05 13:20:00,
2013-03-05 07:25:00,52.5,48.4,29.88,South,179,8.0,11.0,86,0.00,,,0.01,Wunderground v.1.15,2013-03-05 13:25:00,
2013-03-05 07:31:00,52.6,48.5,29.88,South,190,7.0,7.0,86,0.00,,,0.01,Wunderground v.1.15,2013-03-05 13:31:00,
2013-03-05 07:36:00,52.6,48.8,29.88,SW,235,7.0,12.0,87,0.00,,,0.01,Wunderground v.1.15,2013-03-05 13:36:00,
2013-03-05 07:42:00,52.7,48.9,29.87,South,190,8.0,10.0,87,0.00,,,0.01,Wunderground v.1.15,2013-03-05 13:42:00,
2013-03-05 07:47:00,52.7,48.9,29.87,SSW,213,7.0,10.0,87,0.00,,,0.01,Wunderground v.1.15,2013-03-05 13:47:00,
2013-03-05 07:52:00,52.7,49.2,29.87,SW,221,7.0,9.0,88,0.00,,,0.01,Wunderground v.1.15,2013-03-05 13:52:00,
2013-03-05 07:58:00,52.7,49.2,29.87,SW,217,6.0,9.0,88,0.00,,,0.01,Wunderground v.1.15,2013-03-05 13:58:00,
2013-03-05 08:03:00,52.8,49.3,29.87,South,171,7.0,13.0,88,0.00,,,0.01,Wunderground v.1.15,2013-03-05 14:03:00,
2013-03-05 08:09:00,52.6,49.4,29.87,South,178,6.0,13.0,89,0.00,,,0.01,Wunderground v.1.15,2013-03-05 14:09:00,
2013-03-05 08:14:00,52.4,49.6,29.87,South,178,5.0,11.0,90,0.00,,,0.02,Wunderground v.1.15,2013-03-05 14:14:00,
2013-03-05 08:19:00,52.4,49.6,29.87,SSW,213,6.0,12.0,90,0.00,,,0.02,Wunderground v.1.15,2013-03-05 14:19:00,
2013-03-05 08:24:00,52.3,49.8,29.86,SSW,198,5.0,6.0,91,0.00,,,0.02,Wunderground v.1.15,2013-03-05 14:24:00,
2013-03-05 08:30:00,52.4,49.8,29.86,South,175,5.0,6.0,91,0.00,,,0.02,Wunderground v.1.15,2013-03-05 14:30:00,
2013-03-05 08:35:00,52.5,49.7,29.86,SSW,192,6.0,8.0,90,0.00,,,0.02,Wunderground v.1.15,2013-03-05 14:35:00,
2013-03-05 08:41:00,52.5,49.7,29.85,SSE,157,4.0,4.0,90,0.00,,,0.02,Wunderground v.1.15,2013-03-05 14:41:00,
2013-03-05 08:46:00,52.6,50.0,29.84,South,183,4.0,6.0,91,0.00,,,0.02,Wunderground v.1.15,2013-03-05 14:46:00,
2013-03-05 08:51:00,52.6,50.0,29.84,West,275,5.0,9.0,91,0.00,,,0.03,Wunderground v.1.15,2013-03-05 14:51:00,
2013-03-05 08:56:00,52.6,50.0,29.84,SSW,209,5.0,9.0,91,0.00,,,0.03,Wunderground v.1.15,2013-03-05 14:56:00,
2013-03-05 09:02:00,52.6,50.0,29.84,South,175,5.0,6.0,91,0.00,,,0.03,Wunderground v.1.15,2013-03-05 15:02:00,
2013-03-05 09:07:00,52.6,50.3,29.83,South,171,5.0,7.0,92,0.00,,,0.03,Wunderground v.1.15,2013-03-05 15:07:00,
2013-03-05 09:13:00,52.6,50.3,29.83,South,170,5.0,5.0,92,0.00,,,0.03,Wunderground v.1.15,2013-03-05 15:13:00,
2013-03-05 09:19:00,52.7,50.1,29.82,SSE,161,4.0,7.0,91,0.00,,,0.03,Wunderground v.1.15,2013-03-05 15:19:00,
2013-03-05 09:24:00,52.9,50.3,29.82,South,176,4.0,6.0,91,0.00,,,0.03,Wunderground v.1.15,2013-03-05 15:24:00,
2013-03-05 09:30:00,53.0,50.4,29.81,SW,218,5.0,7.0,91,0.00,,,0.03,Wunderground v.1.15,2013-03-05 15:30:00,
2013-03-05 09:36:00,53.2,50.6,29.82,SW,234,5.0,8.0,91,0.00,,,0.03,Wunderground v.1.15,2013-03-05 15:36:00,
2013-03-05 09:41:00,53.2,50.6,29.82,South,188,6.0,9.0,91,0.00,,,0.03,Wunderground v.1.15,2013-03-05 15:41:00,
2013-03-05 09:46:00,53.3,50.7,29.82,South,185,5.0,9.0,91,0.00,,,0.03,Wunderground v.1.15,2013-03-05 15:46:00,
2013-03-05 09:52:00,53.4,50.8,29.81,South,190,6.0,10.0,91,0.00,,,0.03,Wunderground v.1.15,2013-03-05 15:52:00,
2013-03-05 09:57:00,53.4,50.8,29.81,South,180,6.0,10.0,91,0.00,,,0.03,Wunderground v.1.15,2013-03-05 15:57:00,
2013-03-05 10:02:00,53.5,51.2,29.81,WSW,251,6.0,12.0,92,0.00,,,0.03,Wunderground v.1.15,2013-03-05 16:02:00,
2013-03-05 10:08:00,53.5,51.2,29.81,SSW,207,7.0,12.0,92,0.00,,,0.04,Wunderground v.1.15,2013-03-05 16:08:00,
2013-03-05 10:13:00,53.4,51.4,29.80,SW,232,7.0,10.0,93,0.18,,,0.05,Wunderground v.1.15,2013-03-05 16:13:00,
2013-03-05 10:18:00,53.2,51.2,29.79,SW,228,6.0,10.0,93,0.17,,,0.06,Wunderground v.1.15,2013-03-05 16:18:00,
2013-03-05 10:23:00,53.1,51.4,29.79,SW,225,6.0,8.0,94,0.21,,,0.08,Wunderground v.1.15,2013-03-05 16:23:00,
2013-03-05 10:29:00,53.2,51.5,29.78,SSW,200,7.0,9.0,94,0.11,,,0.09,Wunderground v.1.15,2013-03-05 16:29:00,
2013-03-05 10:34:00,53.2,51.5,29.79,WSW,254,6.0,7.0,94,0.08,,,0.09,Wunderground v.1.15,2013-03-05 16:34:00,
2013-03-05 10:39:00,53.1,51.4,29.79,South,173,6.0,6.0,94,0.04,,,0.09,Wunderground v.1.15,2013-03-05 16:39:00,
2013-03-05 10:45:00,53.2,51.8,29.79,South,190,6.0,7.0,95,0.00,,,0.10,Wunderground v.1.15,2013-03-05 16:45:00,
2013-03-05 10:50:00,53.2,51.8,29.79,SW,233,6.0,6.0,95,0.00,,,0.10,Wunderground v.1.15,2013-03-05 16:50:00,
2013-03-05 10:55:00,53.3,51.9,29.78,SSW,213,7.0,10.0,95,0.13,,,0.12,Wunderground v.1.15,2013-03-05 16:55:00,
2013-03-05 11:01:00,53.3,51.9,29.79,South,176,6.0,7.0,95,0.20,,,0.13,Wunderground v.1.15,2013-03-05 17:01:00,
2013-03-05 11:06:00,53.3,51.9,29.80,West,259,6.0,9.0,95,0.19,,,0.16,Wunderground v.1.15,2013-03-05 17:06:00,
2013-03-05 11:11:00,53.4,52.0,29.83,South,174,6.0,6.0,95,0.48,,,0.19,Wunderground v.1.15,2013-03-05 17:11:00,
2013-03-05 11:17:00,53.4,52.0,29.76,SW,214,7.0,11.0,95,0.98,,,0.31,Wunderground v.1.15,2013-03-05 17:17:00,
2013-03-05 11:22:00,53.4,52.3,29.75,South,188,6.0,7.0,96,0.24,,,0.33,Wunderground v.1.15,2013-03-05 17:22:00,
2013-03-05 11:28:00,53.4,52.3,29.75,South,171,4.0,7.0,96,0.12,,,0.34,Wunderground v.1.15,2013-03-05 17:28:00,
2013-03-05 11:33:00,53.3,52.2,29.75,South,171,4.0,6.0,96,0.08,,,0.34,Wunderground v.1.15,2013-03-05 17:33:00,
2013-03-05 11:39:00,53.6,52.5,29.74,South,181,3.0,6.0,96,0.04,,,0.34,Wunderground v.1.15,2013-03-05 17:39:00,
2013-03-05 11:45:00,53.9,52.8,29.73,South,171,4.0,7.0,96,0.00,,,0.34,Wunderground v.1.15,2013-03-05 17:45:00,
2013-03-05 11:50:00,54.0,52.9,29.73,South,176,5.0,5.0,96,0.00,,,0.34,Wunderground v.1.15,2013-03-05 17:50:00,
2013-03-05 11:55:00,54.1,53.0,29.73,South,173,5.0,9.0,96,0.00,,,0.34,Wunderground v.1.15,2013-03-05 17:55:00,
2013-03-05 12:01:00,54.2,52.8,29.73,South,171,4.0,4.0,95,0.00,,,0.34,Wunderground v.1.15,2013-03-05 18:01:00,
2013-03-05 12:06:00,54.2,52.8,29.72,SSW,207,3.0,7.0,95,0.14,,,0.36,Wunderground v.1.15,2013-03-05 18:06:00,
2013-03-05 12:12:00,54.1,52.7,29.72,South,190,4.0,6.0,95,0.12,,,0.37,Wunderground v.1.15,2013-03-05 18:12:00,
2013-03-05 12:17:00,54.1,52.7,29.71,South,174,5.0,7.0,95,0.40,,,0.43,Wunderground v.1.15,2013-03-05 18:17:00,
2013-03-05 12:22:00,54.0,52.6,29.72,South,171,5.0,7.0,95,0.38,,,0.47,Wunderground v.1.15,2013-03-05 18:22:00,
2013-03-05 12:27:00,54.0,52.9,29.70,SW,216,5.0,8.0,96,0.48,,,0.49,Wunderground v.1.15,2013-03-05 18:27:00,
2013-03-05 12:33:00,54.0,52.9,29.69,South,171,5.0,5.0,96,0.20,,,0.52,Wunderground v.1.15,2013-03-05 18:33:00,
2013-03-05 12:38:00,54.0,52.9,29.67,SSW,200,4.0,5.0,96,0.07,,,0.52,Wunderground v.1.15,2013-03-05 18:38:00,
2013-03-05 12:44:00,53.9,52.8,29.67,SW,221,4.0,7.0,96,0.04,,,0.52,Wunderground v.1.15,2013-03-05 18:44:00,
2013-03-05 12:49:00,53.9,52.8,29.67,SW,222,5.0,10.0,96,0.00,,,0.52,Wunderground v.1.15,2013-03-05 18:49:00,
2013-03-05 12:54:00,54.1,53.0,29.67,SW,215,6.0,10.0,96,0.00,,,0.52,Wunderground v.1.15,2013-03-05 18:54:00,
2013-03-05 12:59:00,54.2,53.4,29.67,West,259,7.0,10.0,97,0.00,,,0.53,Wunderground v.1.15,2013-03-05 18:59:00,
2013-03-05 13:05:00,54.3,53.2,29.66,SSW,200,8.0,14.0,96,0.09,,,0.54,Wunderground v.1.15,2013-03-05 19:05:00,
2013-03-05 13:10:00,54.3,53.2,29.65,SSW,200,6.0,6.0,96,0.17,,,0.56,Wunderground v.1.15,2013-03-05 19:10:00,
2013-03-05 13:15:00,54.3,53.2,29.66,South,185,5.0,7.0,96,0.19,,,0.57,Wunderground v.1.15,2013-03-05 19:15:00,
2013-03-05 13:21:00,54.4,53.3,29.65,South,185,6.0,7.0,96,0.20,,,0.59,Wunderground v.1.15,2013-03-05 19:21:00,
2013-03-05 13:26:00,54.5,53.7,29.66,WSW,254,6.0,10.0,97,0.23,,,0.61,Wunderground v.1.15,2013-03-05 19:26:00,
2013-03-05 13:32:00,54.5,53.7,29.66,SW,223,6.0,8.0,97,0.29,,,0.64,Wunderground v.1.15,2013-03-05 19:32:00,
2013-03-05 13:37:00,54.6,53.8,29.66,SSW,198,7.0,8.0,97,0.38,,,0.67,Wunderground v.1.15,2013-03-05 19:37:00,
2013-03-05 13:42:00,54.7,53.9,29.66,SSW,212,7.0,8.0,97,0.26,,,0.70,Wunderground v.1.15,2013-03-05 19:42:00,
2013-03-05 13:47:00,54.7,53.9,29.66,SSW,206,7.0,9.0,97,0.40,,,0.73,Wunderground v.1.15,2013-03-05 19:47:00,
2013-03-05 13:53:00,54.7,53.9,29.66,SSW,212,7.0,7.0,97,0.43,,,0.76,Wunderground v.1.15,2013-03-05 19:53:00,
2013-03-05 13:58:00,54.7,53.9,29.67,SW,222,6.0,7.0,97,0.44,,,0.80,Wunderground v.1.15,2013-03-05 19:58:00,
2013-03-05 14:04:00,54.9,54.1,29.69,East,100,7.0,13.0,97,0.55,,,0.85,Wunderground v.1.15,2013-03-05 20:04:00,
2013-03-05 14:09:00,54.4,53.0,29.66,SSE,150,6.0,13.0,95,0.28,,,0.88,Wunderground v.1.15,2013-03-05 20:09:00,
2013-03-05 14:15:00,54.7,51.2,29.68,West,277,7.0,20.0,88,0.08,,,0.89,Wunderground v.1.15,2013-03-05 20:15:00,
2013-03-05 14:21:00,55.0,50.9,29.69,NW,314,8.0,8.0,86,0.08,,,0.89,Wunderground v.1.15,2013-03-05 20:21:00,
2013-03-05 14:26:00,55.3,50.5,29.68,West,280,8.0,14.0,84,0.05,,,0.89,Wunderground v.1.15,2013-03-05 20:26:00,
2013-03-05 14:31:00,55.1,51.0,29.67,NW,313,8.0,8.0,86,0.26,,,0.91,Wunderground v.1.15,2013-03-05 20:31:00,
2013-03-05 14:36:00,54.9,50.5,29.67,North,354,6.0,13.0,85,0.09,,,0.91,Wunderground v.1.15,2013-03-05 20:36:00,
2013-03-05 14:42:00,55.0,49.9,29.66,West,281,8.0,10.0,83,0.05,,,0.91,Wunderground v.1.15,2013-03-05 20:42:00,
2013-03-05 14:47:00,55.0,49.9,29.65,West,276,8.0,11.0,83,0.04,,,0.92,Wunderground v.1.15,2013-03-05 20:47:00,
2013-03-05 14:52:00,55.1,49.7,29.65,WNW,290,7.0,10.0,82,0.04,,,0.92,Wunderground v.1.15,2013-03-05 20:52:00,
2013-03-05 14:58:00,55.2,49.5,29.65,WSW,252,7.0,10.0,81,0.04,,,0.92,Wunderground v.1.15,2013-03-05 20:58:00,
2013-03-05 15:04:00,55.5,50.1,29.66,SSW,209,6.0,19.0,82,0.04,,,0.93,Wunderground v.1.15,2013-03-05 21:04:00,
2013-03-05 15:10:00,55.7,50.0,29.67,WNW,294,7.0,7.0,81,0.04,,,0.93,Wunderground v.1.15,2013-03-05 21:10:00,
2013-03-05 15:15:00,55.7,50.3,29.67,WSW,245,7.0,10.0,82,0.04,,,0.93,Wunderground v.1.15,2013-03-05 21:15:00,
2013-03-05 15:21:00,55.4,49.3,29.67,WNW,288,6.0,9.0,80,0.00,,,0.93,Wunderground v.1.15,2013-03-05 21:21:00,
2013-03-05 15:27:00,54.9,49.5,29.69,WNW,291,8.0,15.0,82,0.00,,,0.93,Wunderground v.1.15,2013-03-05 21:27:00,
2013-03-05 15:32:00,54.2,48.5,29.69,NE,34,8.0,13.0,81,0.00,,,0.93,Wunderground v.1.15,2013-03-05 21:32:00,
2013-03-05 15:37:00,53.7,48.0,29.69,NNW,328,10.0,22.0,81,0.00,,,0.93,Wunderground v.1.15,2013-03-05 21:37:00,
2013-03-05 15:43:00,53.2,47.2,29.70,SW,235,10.0,14.0,80,0.00,,,0.93,Wunderground v.1.15,2013-03-05 21:43:00,
2013-03-05 15:48:00,52.6,46.9,29.71,WNW,294,10.0,14.0,81,0.00,,,0.93,Wunderground v.1.15,2013-03-05 21:48:00,
2013-03-05 15:54:00,51.5,45.9,29.72,NW,315,9.0,12.0,81,0.00,,,0.93,Wunderground v.1.15,2013-03-05 21:54:00,
2013-03-05 15:59:00,50.4,45.4,29.74,NNW,330,8.0,12.0,83,0.00,,,0.93,Wunderground v.1.15,2013-03-05 21:59:00,
2013-03-05 16:05:00,49.5,44.9,29.74,NW,317,8.0,8.0,84,0.00,,,0.93,Wunderground v.1.15,2013-03-05 22:05:00,
2013-03-05 16:11:00,47.9,43.3,29.75,NW,304,9.0,18.0,84,0.00,,,0.94,Wunderground v.1.15,2013-03-05 22:11:00,
2013-03-05 16:16:00,47.4,42.8,29.76,WNW,300,9.0,18.0,84,0.00,,,0.94,Wunderground v.1.15,2013-03-05 22:16:00,
2013-03-05 16:22:00,47.2,42.3,29.77,WNW,299,7.0,10.0,83,0.00,,,0.94,Wunderground v.1.15,2013-03-05 22:22:00,
2013-03-05 16:27:00,47.0,42.4,29.77,NNW,339,7.0,11.0,84,0.00,,,0.94,Wunderground v.1.15,2013-03-05 22:27:00,
2013-03-05 16:32:00,46.5,41.6,29.77,NW,316,7.0,12.0,83,0.00,,,0.94,Wunderground v.1.15,2013-03-05 22:32:00,
2013-03-05 16:37:00,46.0,41.1,29.79,NW,324,9.0,12.0,83,0.00,,,0.94,Wunderground v.1.15,2013-03-05 22:37:00,
2013-03-05 16:43:00,45.5,40.9,29.80,NNW,348,6.0,15.0,84,0.00,,,0.94,Wunderground v.1.15,2013-03-05 22:43:00,
2013-03-05 16:48:00,44.4,39.9,29.81,NNW,328,7.0,15.0,84,0.00,,,0.94,Wunderground v.1.15,2013-03-05 22:48:00,
2013-03-05 16:54:00,43.4,39.5,29.82,West,281,8.0,18.0,86,0.00,,,0.94,Wunderground v.1.15,2013-03-05 22:54:00,
2013-03-05 17:00:00,42.8,38.9,29.83,North,355,8.0,8.0,86,0.00,,,0.94,Wunderground v.1.15,2013-03-05 23:00:00,
2013-03-05 17:05:00,42.4,38.8,29.84,WNW,297,7.0,11.0,87,0.00,,,0.94,Wunderground v.1.15,2013-03-05 23:05:00,
2013-03-05 17:10:00,42.3,38.7,29.85,NW,316,5.0,5.0,87,0.00,,,0.94,Wunderground v.1.15,2013-03-05 23:10:00,
2013-03-05 17:15:00,42.2,38.9,29.85,SSW,206,4.0,8.0,88,0.00,,,0.94,Wunderground v.1.15,2013-03-05 23:15:00,
2013-03-05 17:21:00,41.9,38.3,29.87,North,8,3.0,4.0,87,0.00,,,0.94,Wunderground v.1.15,2013-03-05 23:21:00,
2013-03-05 17:26:00,41.5,37.6,29.87,NW,314,4.0,5.0,86,0.00,,,0.94,Wunderground v.1.15,2013-03-05 23:26:00,
2013-03-05 17:32:00,41.0,36.8,29.88,NW,314,4.0,8.0,85,0.00,,,0.94,Wunderground v.1.15,2013-03-05 23:32:00,
2013-03-05 17:37:00,40.6,36.4,29.90,West,276,4.0,8.0,85,0.00,,,0.94,Wunderground v.1.15,2013-03-05 23:37:00,
2013-03-05 17:43:00,39.9,35.5,29.90,NW,316,6.0,7.0,84,0.00,,,0.94,Wunderground v.1.15,2013-03-05 23:43:00,
2013-03-05 17:49:00,39.3,35.5,29.91,NW,318,7.0,8.0,86,0.00,,,0.94,Wunderground v.1.15,2013-03-05 23:49:00,
2013-03-05 17:54:00,39.1,35.3,29.92,North,354,4.0,8.0,86,0.00,,,0.94,Wunderground v.1.15,2013-03-05 23:54:00,
2013-03-05 18:00:00,39.0,35.2,29.92,South,171,3.0,13.0,86,0.00,,,0.94,Wunderground v.1.15,2013-03-06 00:00:00,
2013-03-05 18:06:00,38.6,34.8,29.93,ESE,104,4.0,13.0,86,0.00,,,0.94,Wunderground v.1.15,2013-03-06 00:06:00,
2013-03-05 18:11:00,38.3,33.9,29.93,NNW,339,7.0,9.0,84,0.00,,,0.94,Wunderground v.1.15,2013-03-06 00:11:00,
2013-03-05 18:16:00,38.2,33.5,29.93,WNW,303,7.0,15.0,83,0.00,,,0.94,Wunderground v.1.15,2013-03-06 00:16:00,
2013-03-05 18:21:00,38.1,33.4,29.94,WNW,286,1.0,8.0,83,0.00,,,0.94,Wunderground v.1.15,2013-03-06 00:21:00,
2013-03-05 18:26:00,37.9,33.5,29.94,West,281,2.0,8.0,84,0.00,,,0.94,Wunderground v.1.15,2013-03-06 00:26:00,
2013-03-05 18:31:00,37.7,33.0,29.94,NW,317,7.0,13.0,83,0.00,,,0.94,Wunderground v.1.15,2013-03-06 00:31:00,
2013-03-05 18:36:00,37.6,32.9,29.94,ENE,74,5.0,13.0,83,0.00,,,0.94,Wunderground v.1.15,2013-03-06 00:36:00,
2013-03-05 18:41:00,37.5,32.8,29.94,WSW,253,5.0,5.0,83,0.00,,,0.94,Wunderground v.1.15,2013-03-06 00:41:00,
2013-03-05 18:46:00,37.5,31.9,29.95,NNW,346,10.0,17.0,80,0.00,,,0.94,Wunderground v.1.15,2013-03-06 00:46:00,
2013-03-05 18:51:00,37.5,32.2,29.95,WNW,297,5.0,6.0,81,0.00,,,0.94,Wunderground v.1.15,2013-03-06 00:51:00,
2013-03-05 18:56:00,37.4,31.8,29.95,NW,304,1.0,14.0,80,0.00,,,0.94,Wunderground v.1.15,2013-03-06 00:56:00,
2013-03-05 19:01:00,37.4,31.5,29.95,West,269,6.0,13.0,79,0.00,,,0.94,Wunderground v.1.15,2013-03-06 01:01:00,
2013-03-05 19:06:00,37.4,31.8,29.95,WNW,302,2.0,17.0,80,0.00,,,0.94,Wunderground v.1.15,2013-03-06 01:06:00,
2013-03-05 19:11:00,37.4,30.5,29.95,NNW,342,4.0,14.0,76,0.00,,,0.94,Wunderground v.1.15,2013-03-06 01:11:00,
2013-03-05 19:16:00,37.5,30.6,29.95,NW,306,5.0,15.0,76,0.00,,,0.94,Wunderground v.1.15,2013-03-06 01:16:00,
2013-03-05 19:21:00,37.5,30.3,29.95,WNW,292,3.0,12.0,75,0.00,,,0.94,Wunderground v.1.15,2013-03-06 01:21:00,
2013-03-05 19:26:00,37.5,30.3,29.95,NW,309,3.0,12.0,75,0.00,,,0.94,Wunderground v.1.15,2013-03-06 01:26:00,
2013-03-05 19:31:00,37.5,30.6,29.95,NNW,327,5.0,7.0,76,0.00,,,0.94,Wunderground v.1.15,2013-03-06 01:31:00,
2013-03-05 19:36:00,37.5,30.6,29.95,WNW,289,3.0,8.0,76,0.00,,,0.94,Wunderground v.1.15,2013-03-06 01:36:00,
2013-03-05 19:41:00,37.5,30.3,29.95,WNW,291,3.0,5.0,75,0.00,,,0.94,Wunderground v.1.15,2013-03-06 01:41:00,
2013-03-05 19:46:00,37.5,30.9,29.95,NW,320,2.0,6.0,77,0.00,,,0.94,Wunderground v.1.15,2013-03-06 01:46:00,
2013-03-05 19:51:00,37.5,30.6,29.95,NNW,330,3.0,7.0,76,0.00,,,0.94,Wunderground v.1.15,2013-03-06 01:51:00,
2013-03-05 19:56:00,37.5,30.6,29.95,NW,307,4.0,7.0,76,0.00,,,0.94,Wunderground v.1.15,2013-03-06 01:56:00,
2013-03-05 20:01:00,37.5,30.3,29.95,NW,304,2.0,8.0,75,0.00,,,0.94,Wunderground v.1.15,2013-03-06 02:01:00,
2013-03-05 20:06:00,37.5,30.6,29.95,WNW,292,3.0,8.0,76,0.00,,,0.94,Wunderground v.1.15,2013-03-06 02:06:00,
2013-03-05 20:11:00,37.5,30.6,29.95,NNW,344,7.0,10.0,76,0.00,,,0.94,Wunderground v.1.15,2013-03-06 02:11:00,
2013-03-05 20:16:00,37.5,30.3,29.94,North,355,4.0,10.0,75,0.00,,,0.94,Wunderground v.1.15,2013-03-06 02:16:00,
2013-03-05 20:21:00,37.5,30.3,29.94,West,275,2.0,3.0,75,0.00,,,0.94,Wunderground v.1.15,2013-03-06 02:21:00,
2013-03-05 20:26:00,37.4,29.9,29.94,SE,128,5.0,7.0,74,0.00,,,0.94,Wunderground v.1.15,2013-03-06 02:26:00,
2013-03-05 20:31:00,37.5,30.0,29.94,NNE,14,7.0,7.0,74,0.00,,,0.94,Wunderground v.1.15,2013-03-06 02:31:00,
2013-03-05 20:36:00,37.5,30.3,29.94,West,265,2.0,9.0,75,0.00,,,0.94,Wunderground v.1.15,2013-03-06 02:36:00,
2013-03-05 20:41:00,37.5,30.0,29.94,WNW,296,0.0,3.0,74,0.00,,,0.94,Wunderground v.1.15,2013-03-06 02:41:00,
2013-03-05 20:46:00,37.4,29.9,29.94,WNW,293,0.0,4.0,74,0.00,,,0.94,Wunderground v.1.15,2013-03-06 02:46:00,
2013-03-05 20:51:00,37.3,29.8,29.93,West,281,2.0,4.0,74,0.00,,,0.94,Wunderground v.1.15,2013-03-06 02:51:00,
2013-03-05 20:56:00,37.4,29.9,29.93,West,278,4.0,10.0,74,0.00,,,0.94,Wunderground v.1.15,2013-03-06 02:56:00,
2013-03-05 21:01:00,37.4,29.5,29.93,WNW,303,0.0,5.0,73,0.00,,,0.94,Wunderground v.1.15,2013-03-06 03:01:00,
2013-03-05 21:06:00,37.5,28.9,29.92,North,351,9.0,20.0,71,0.00,,,0.94,Wunderground v.1.15,2013-03-06 03:06:00,
2013-03-05 21:11:00,37.5,29.3,29.92,North,352,7.0,9.0,72,0.00,,,0.94,Wunderground v.1.15,2013-03-06 03:11:00,
2013-03-05 21:16:00,37.7,28.4,29.92,NW,320,4.0,13.0,69,0.00,,,0.94,Wunderground v.1.15,2013-03-06 03:16:00,
2013-03-05 21:21:00,37.7,28.4,29.92,West,264,10.0,17.0,69,0.00,,,0.94,Wunderground v.1.15,2013-03-06 03:21:00,
2013-03-05 21:26:00,37.6,28.7,29.92,WNW,292,5.0,17.0,70,0.00,,,0.94,Wunderground v.1.15,2013-03-06 03:26:00,
2013-03-05 21:31:00,37.7,28.4,29.93,NNW,342,8.0,10.0,69,0.00,,,0.94,Wunderground v.1.15,2013-03-06 03:31:00,
2013-03-05 21:37:00,37.6,28.3,29.92,NW,314,1.0,15.0,69,0.00,,,0.94,Wunderground v.1.15,2013-03-06 03:37:00,
2013-03-05 21:42:00,37.5,28.6,29.92,West,279,3.0,6.0,70,0.00,,,0.94,Wunderground v.1.15,2013-03-06 03:42:00,
2013-03-05 21:47:00,37.5,27.9,29.92,NW,319,3.0,12.0,68,0.00,,,0.94,Wunderground v.1.15,2013-03-06 03:47:00,
2013-03-05 21:52:00,37.5,27.9,29.92,NW,325,2.0,9.0,68,0.00,,,0.94,Wunderground v.1.15,2013-03-06 03:52:00,
2013-03-05 21:57:00,37.5,27.9,29.93,NNW,339,3.0,12.0,68,0.00,,,0.94,Wunderground v.1.15,2013-03-06 03:57:00,
2013-03-05 22:02:00,37.4,28.2,29.93,NW,320,7.0,12.0,69,0.00,,,0.94,Wunderground v.1.15,2013-03-06 04:02:00,
2013-03-05 22:07:00,37.3,28.1,29.93,WNW,299,2.0,12.0,69,0.00,,,0.94,Wunderground v.1.15,2013-03-06 04:07:00,
2013-03-05 22:12:00,37.2,28.0,29.93,North,3,16.0,24.0,69,0.00,,,0.94,Wunderground v.1.15,2013-03-06 04:12:00,
2013-03-05 22:17:00,37.2,26.9,29.93,NW,320,7.0,24.0,66,0.00,,,0.94,Wunderground v.1.15,2013-03-06 04:17:00,
2013-03-05 22:22:00,36.9,26.6,29.93,West,278,2.0,7.0,66,0.00,,,0.94,Wunderground v.1.15,2013-03-06 04:22:00,
2013-03-05 22:27:00,36.8,26.1,29.93,WNW,300,3.0,13.0,65,0.00,,,0.94,Wunderground v.1.15,2013-03-06 04:27:00,
2013-03-05 22:32:00,36.7,26.4,29.93,NNW,345,3.0,15.0,66,0.00,,,0.94,Wunderground v.1.15,2013-03-06 04:32:00,
2013-03-05 22:37:00,36.6,26.3,29.93,WNW,299,2.0,15.0,66,0.00,,,0.94,Wunderground v.1.15,2013-03-06 04:37:00,
2013-03-05 22:42:00,36.5,26.2,29.93,NW,325,8.0,12.0,66,0.00,,,0.94,Wunderground v.1.15,2013-03-06 04:42:00,
2013-03-05 22:47:00,36.3,26.4,29.93,NW,309,6.0,12.0,67,0.00,,,0.94,Wunderground v.1.15,2013-03-06 04:47:00,
2013-03-05 22:52:00,36.3,26.0,29.92,NW,311,7.0,9.0,66,0.00,,,0.94,Wunderground v.1.15,2013-03-06 04:52:00,
2013-03-05 22:57:00,36.4,26.1,29.92,WNW,287,5.0,13.0,66,0.00,,,0.94,Wunderground v.1.15,2013-03-06 04:57:00,
2013-03-05 23:00:00,36.5,26.6,29.93,West,279,3.0,6.0,67,0.00,,,0.94,Wunderground v.1.15,2013-03-06 05:00:00,
2013-03-05 23:02:00,36.4,26.5,29.93,SW,227,6.0,7.0,67,0.00,,,0.94,Wunderground v.1.15,2013-03-06 05:02:00,
2013-03-05 23:07:00,36.2,27.0,29.94,WNW,302,5.0,10.0,69,0.00,,,0.94,Wunderground v.1.15,2013-03-06 05:07:00,
2013-03-05 23:12:00,34.4,28.9,29.94,NNW,342,5.0,14.0,80,0.00,,,0.94,Wunderground v.1.15,2013-03-06 05:12:00,
2013-03-05 23:18:00,33.2,28.6,29.95,NW,319,4.0,14.0,83,0.00,,,0.94,Wunderground v.1.15,2013-03-06 05:18:00,
2013-03-05 23:24:00,33.2,27.4,29.94,NNW,348,5.0,6.0,79,0.00,,,0.94,Wunderground v.1.15,2013-03-06 05:24:00,
2013-03-05 23:29:00,33.5,27.1,29.95,NNE,20,9.0,15.0,77,0.00,,,0.94,Wunderground v.1.15,2013-03-06 05:29:00,
2013-03-05 23:34:00,33.7,26.6,29.95,NNW,334,8.0,12.0,75,0.00,,,0.94,Wunderground v.1.15,2013-03-06 05:34:00,
2013-03-05 23:40:00,33.9,26.5,29.95,NW,317,4.0,7.0,74,0.00,,,0.94,Wunderground v.1.15,2013-03-06 05:40:00,
2013-03-05 23:45:00,33.9,25.8,29.95,North,2,16.0,16.0,72,0.00,,,0.94,Wunderground v.1.15,2013-03-06 05:45:00,
2013-03-05 23:51:00,33.7,26.0,29.95,NW,320,7.0,7.0,73,0.00,,,0.94,Wunderground v.1.15,2013-03-06 05:51:00,
2013-03-05 23:56:00,33.6,25.2,29.95,NW,310,1.0,12.0,71,0.00,,,0.94,Wunderground v.1.15,2013-03-06 05:56:00,